[[{"header":{"parameterUnit":"m.s-1","parameterCategory":1,"la1":30.2991,"la2":30.254,"lo1":-89.0895,"lo2":-89.0444,"dy":0.0017,"dx":0.0017,"nx":28,"ny":28,"refTime":"2025-01-28T03:00:00:Z","depth":0,"parameterNumber":2,"parameterNumberName":"U-component_of_WINDS"},"data":[0,0,0,0,0,0,0,0,0,0,0,0,0,0,0,0,0,0,0,0,0,0,0,0,0,0,0,0,0,0,0,0,0,0,0,0,0,0,0,0,0,0,0,0,0,0,0,0,0,0,0,0,0,0,0,0,0,0,1.3856,1.3856,0,1.3887,1.3887,1.3888,1.3883,1.3882,1.3882,1.3881,1.3913,1.3915,1.3916,0,0,0,0,0,0,0,0,0,0,0,0,0,1.3794,1.3795,1.3856,1.3856,1.3857,1.3887,1.3887,1.3888,1.3883,1.3882,1.3882,1.3881,1.3913,1.3914,1.3916,0,0,0,0,0,0,0,0,0,0,0,0,0,1.3823,1.3796,1.3856,1.3858,1.3858,1.3887,1.3887,1.3888,1.3883,1.3882,1.3881,1.3881,1.3912,1.3914,1.3916,1.3945,0,0,1.3923,1.3923,0,0,0,0,0,0,0,0,1.3821,1.3825,1.3857,1.3858,1.3858,1.388,1.3877,1.3907,1.3883,1.3874,1.3881,1.388,1.3903,1.3906,1.3913,1.3946,1.3948,1.3923,1.3924,1.3925,1.3925,0,0,0,0,0,0,0,1.3819,1.3824,1.3868,1.3858,1.3858,1.3858,1.3861,1.3883,1.3892,1.3874,1.3874,1.3878,1.3903,1.3911,1.3914,1.3948,1.3923,1.3924,1.3926,1.3927,1.4009,1.401,0,0,0,0,0,0,1.3816,1.3822,1.3867,1.3869,1.3837,1.386,1.3863,1.3874,1.3892,1.3894,1.3879,1.3878,1.3908,1.3912,1.3915,1.3951,1.3925,1.3927,1.3928,1.4008,1.4009,1.401,0,0,0,0,0,0,1.3815,1.382,1.3866,1.3846,1.3851,1.3861,1.3874,1.3875,1.3883,1.3895,1.3897,1.3885,1.3908,1.3912,1.3938,1.3952,1.3928,1.3929,1.4007,1.4008,1.401,1.4023,0,0,0,0,0,0,1.3813,1.382,1.383,1.3846,1.3852,1.3888,1.3875,1.3876,1.3887,1.3886,1.3902,1.3904,1.3908,1.3935,1.394,1.3955,1.3931,1.4006,1.4007,1.4009,1.4022,1.4025,1.4028,0,0,0,0,0,1.3811,1.3833,1.3831,1.3837,1.3866,1.3889,1.3893,1.3896,1.3888,1.3899,1.3907,1.3903,1.395,1.3938,1.3943,1.3959,1.4005,1.4007,1.4009,1.402,1.4024,1.4028,0,0,0,0,0,0,1.3819,1.3835,1.3833,1.386,1.3873,1.3888,1.3902,1.39,1.3916,1.3914,1.3918,1.3922,1.3949,1.3956,1.3942,1.3989,1.3976,1.398,1.3983,1.3987,1.399,1.3988,1.3933,0,0,0,0,0,1.3823,1.384,1.3854,1.3876,1.3883,1.3892,1.3902,1.3903,1.3917,1.3923,1.3932,1.3946,1.3964,1.3976,1.3993,1.4023,1.4027,1.4036,1.4039,1.4042,1.4045,1.4063,1.4068,1.4017,1.4017,1.4017,0,0,1.3833,1.3844,1.3855,1.3878,1.3889,1.3907,1.3896,1.3915,1.3929,1.3926,1.3951,1.3959,1.3974,1.4003,1.4016,1.401,1.406,1.4045,1.4046,1.4048,1.4066,1.4071,1.4075,1.4019,1.4018,1.4018,0,0,1.3862,1.3871,1.3892,1.3903,1.3919,1.3924,1.3929,1.3945,1.395,1.3975,1.3973,1.399,1.402,1.4032,1.4042,1.4077,1.4075,1.4082,1.4099,1.4117,1.4121,1.4124,1.4138,1.4143,1.4085,1.4085,1.4085,0,1.3872,1.3899,1.3903,1.3923,1.3934,1.3932,1.3954,1.3964,1.3985,1.3993,1.3986,1.4025,1.4035,1.4067,1.4076,1.4084,1.4091,1.408,1.412,1.4123,1.4127,1.414,1.4145,1.4086,1.4086,1.4086,1.4086,0,1.3913,1.3932,1.3947,1.3967,1.398,1.4001,1.4008,1.402,1.4022,1.4028,1.4055,1.4068,1.4088,1.4096,1.4096,1.4129,1.4125,1.4119,1.4106,1.4133,1.4145,1.415,1.4087,1.4087,1.4087,1.4087,0,0,1.3946,1.3969,1.3975,1.3985,1.4003,1.4018,1.4039,1.4059,1.4071,1.4085,1.4104,1.4131,1.4126,1.4137,1.414,1.4155,1.4184,1.4148,1.4148,1.4155,1.4222,1.4227,1.4233,1.4182,1.4183,1.4184,1.4221,0,1.3977,1.4014,1.4019,1.4052,1.4071,1.407,1.4089,1.4102,1.4109,1.4127,1.4135,1.4154,1.4145,1.4153,1.4168,1.4177,1.4197,1.4174,1.4201,1.4202,1.4198,1.4239,1.4244,1.4278,1.4226,1.4227,1.4227,0,1.4018,1.4034,1.407,1.4087,1.4095,1.4112,1.4131,1.4147,1.4164,1.4168,1.4181,1.4182,1.4206,1.4192,1.4225,1.4209,1.4221,1.4227,1.4229,1.4232,1.4217,1.4245,1.4289,1.4295,1.4235,1.4234,1.4233,0,1.404,1.4071,1.4097,1.4105,1.4126,1.4138,1.4147,1.4162,1.4174,1.4192,1.42,1.422,1.4231,1.4247,1.4254,1.4243,1.4287,1.4273,1.4292,1.4292,1.4302,1.4302,1.435,1.4307,1.4307,1.4307,1.4307,0,1.4075,1.4097,1.4108,1.4124,1.4149,1.4154,1.418,1.4188,1.4202,1.4221,1.422,1.4238,1.4245,1.4264,1.427,1.4297,1.4302,1.4307,1.4308,1.4308,1.4307,1.4316,1.4314,1.4309,1.4308,1.4308,1.4308,0,1.4105,1.4112,1.4141,1.4158,1.4163,1.4181,1.4196,1.4212,1.4219,1.4243,1.4249,1.426,1.4283,1.4291,1.4318,1.4322,1.4355,1.4353,1.4349,1.435,1.4369,1.4368,1.4426,1.4434,1.4384,1.4385,1.4385,0,1.4127,1.4144,1.4163,1.4176,1.4185,1.4205,1.4218,1.4224,1.4237,1.4258,1.4272,1.4294,1.4313,1.4349,1.436,1.4382,1.4382,1.4401,1.4385,1.4385,1.4384,1.4384,1.4386,1.4404,1.4405,1.4405,1.4405,0,1.4166,1.4169,1.4187,1.4208,1.4223,1.4239,1.4255,1.4265,1.4274,1.429,1.4313,1.4327,1.4356,1.4378,1.4401,1.4411,1.441,1.441,1.4416,1.4416,1.4414,1.4417,1.4359,1.4409,1.4409,1.4408,1.4408,1.4408,1.4193,1.4209,1.4226,1.4247,1.4259,1.4275,1.4291,1.4301,1.432,1.4344,1.4346,1.4372,1.4389,1.4419,1.443,1.4451,1.4446,1.4454,1.4456,1.4458,1.446,1.441,1.4455,1.4455,1.4454,1.4454,1.4454,0,1.4234,1.4245,1.4264,1.4286,1.4303,1.4301,1.4318,1.4333,1.4355,1.4371,1.439,1.4417,1.444,1.4454,1.4477,1.4491,1.4491,1.4497,1.4496,1.4499,1.4463,1.4456,1.4496,1.4496,1.4496,1.4496,1.4496,1.4496,1.4257,1.4285,1.429,1.4324,1.4335,1.436,1.437,1.4385,1.4398,1.4429,1.4448,1.4456,1.4472,1.4496,1.4518,1.4521,1.453,1.4537,1.454,1.4506,1.4501,1.4497,1.4491,1.4538,1.4538,1.4575,1.4575,1.4575]},{"header":{"parameterUnit":"m.s-1","parameterCategory":1,"la1":30.2991,"la2":30.254,"lo1":-89.0895,"lo2":-89.0444,"dy":0.0017,"dx":0.0017,"nx":28,"ny":28,"refTime":"2025-01-28T03:00:00:Z","depth":0,"parameterNumber":3,"parameterNumberName":"V-component_of_WINDS"},"data":[0,0,0,0,0,0,0,0,0,0,0,0,0,0,0,0,0,0,0,0,0,0,0,0,0,0,0,0,0,0,0,0,0,0,0,0,0,0,0,0,0,0,0,0,0,0,0,0,0,0,0,0,0,0,0,0,0,0,-3.9994,-3.9994,0,-4.0033,-4.0033,-4.0034,-4.004,-4.0039,-4.0039,-4.0039,-4.0075,-4.0076,-4.0077,0,0,0,0,0,0,0,0,0,0,0,0,0,-3.9923,-3.9924,-3.9993,-3.9994,-3.9995,-4.0033,-4.0033,-4.0034,-4.004,-4.0039,-4.0039,-4.0038,-4.0074,-4.0076,-4.0077,0,0,0,0,0,0,0,0,0,0,0,0,0,-3.9957,-3.9925,-3.9993,-4.0002,-4.0003,-4.0033,-4.0033,-4.0034,-4.004,-4.0039,-4.0039,-4.0038,-4.0074,-4.0076,-4.0078,-4.01,0,0,-4.0083,-4.0084,0,0,0,0,0,0,0,0,-3.9955,-3.9959,-4.0,-4.0002,-4.0003,-4.0031,-4.0022,-4.0056,-4.004,-4.0026,-4.0039,-4.0038,-4.006,-4.0063,-4.0072,-4.0101,-4.0103,-4.0084,-4.0085,-4.0086,-4.0086,0,0,0,0,0,0,0,-3.9953,-3.9958,-4.0009,-4.0001,-4.0003,-4.0004,-4.0008,-4.0028,-4.0045,-4.0027,-4.0027,-4.0032,-4.0061,-4.007,-4.0073,-4.0104,-4.0084,-4.0085,-4.0087,-4.0087,-4.0157,-4.0158,0,0,0,0,0,0,-3.9949,-3.9956,-4.0008,-4.001,-3.9977,-4.0006,-4.001,-4.0022,-4.0045,-4.0048,-4.0033,-4.0032,-4.0067,-4.007,-4.0074,-4.0103,-4.0086,-4.0087,-4.0089,-4.0156,-4.0157,-4.0158,0,0,0,0,0,0,-3.9947,-3.9953,-4.0006,-3.9983,-3.999,-4.0007,-4.0021,-4.0023,-4.0032,-4.005,-4.0052,-4.0039,-4.0066,-4.0071,-4.0094,-4.0104,-4.0088,-4.009,-4.0155,-4.0156,-4.0157,-4.0161,0,0,0,0,0,0,-3.9945,-3.9953,-3.9961,-3.9983,-3.9991,-4.0026,-4.0021,-4.0025,-4.0036,-4.0036,-4.0056,-4.0059,-4.0066,-4.0091,-4.0096,-4.0107,-4.0092,-4.0154,-4.0156,-4.0157,-4.016,-4.0162,-4.0164,0,0,0,0,0,-3.9943,-3.9959,-3.9962,-3.9968,-4.0002,-4.0027,-4.0031,-4.0041,-4.0037,-4.0046,-4.0058,-4.0058,-4.0103,-4.0094,-4.0099,-4.011,-4.0154,-4.0155,-4.0157,-4.0159,-4.0161,-4.0164,0,0,0,0,0,0,-3.9935,-3.9962,-3.9965,-3.9989,-4.0006,-4.0028,-4.0039,-4.0043,-4.0059,-4.0059,-4.0069,-4.0074,-4.0097,-4.0106,-4.0095,-4.0135,-4.0128,-4.0131,-4.0128,-4.013,-4.0132,-4.0129,-4.0093,0,0,0,0,0,-3.9937,-3.9955,-3.9977,-3.9996,-4.0005,-4.0021,-4.0031,-4.0038,-4.0055,-4.0062,-4.0075,-4.0091,-4.0109,-4.012,-4.0137,-4.0162,-4.0167,-4.0173,-4.0174,-4.0176,-4.0178,-4.0194,-4.0197,-4.0163,-4.0163,-4.0163,0,0,-3.9939,-3.9956,-3.9966,-3.9995,-4.0009,-4.0028,-4.0026,-4.0045,-4.0059,-4.0064,-4.0088,-4.0098,-4.0117,-4.0142,-4.0153,-4.015,-4.0189,-4.0178,-4.0179,-4.018,-4.0196,-4.0199,-4.0202,-4.0164,-4.0164,-4.0164,0,0,-3.9953,-3.9968,-3.9987,-4.0002,-4.0024,-4.0035,-4.0039,-4.0062,-4.007,-4.0094,-4.0099,-4.0116,-4.0146,-4.016,-4.0171,-4.0196,-4.0197,-4.0201,-4.021,-4.0226,-4.0228,-4.0231,-4.0241,-4.0244,-4.0203,-4.0203,-4.0203,0,-3.9953,-3.9982,-3.9995,-4.0016,-4.0029,-4.0037,-4.0057,-4.007,-4.0096,-4.0105,-4.0102,-4.0143,-4.0155,-4.0185,-4.0191,-4.0199,-4.0206,-4.0198,-4.0227,-4.023,-4.0232,-4.0242,-4.0245,-4.0203,-4.0203,-4.0203,-4.0203,0,-3.9982,-4.0002,-4.0015,-4.0043,-4.0057,-4.0077,-4.0093,-4.0107,-4.0114,-4.0125,-4.0151,-4.0168,-4.019,-4.0198,-4.0203,-4.0229,-4.0226,-4.0225,-4.0218,-4.0235,-4.0245,-4.0248,-4.0204,-4.0204,-4.0204,-4.0203,0,0,-3.9988,-4.0027,-4.0031,-4.0046,-4.0073,-4.0088,-4.011,-4.0134,-4.0146,-4.0164,-4.0182,-4.021,-4.0211,-4.0223,-4.023,-4.0244,-4.0265,-4.0242,-4.0242,-4.0246,-4.0296,-4.0297,-4.0301,-4.0267,-4.0268,-4.0268,-4.0295,0,-4.0006,-4.0046,-4.006,-4.0092,-4.0112,-4.0123,-4.0142,-4.016,-4.0173,-4.0192,-4.0205,-4.0225,-4.0223,-4.0231,-4.0246,-4.0259,-4.0275,-4.0258,-4.0284,-4.0285,-4.0279,-4.0305,-4.0305,-4.0329,-4.0298,-4.0299,-4.0299,0,-4.0031,-4.0054,-4.0088,-4.0117,-4.0126,-4.0142,-4.0167,-4.0185,-4.0207,-4.0216,-4.0232,-4.024,-4.0263,-4.0256,-4.0289,-4.0277,-4.0289,-4.0298,-4.0299,-4.0301,-4.0292,-4.0308,-4.0337,-4.0341,-4.0305,-4.0305,-4.0304,0,-4.0034,-4.0073,-4.0099,-4.0111,-4.0144,-4.0156,-4.017,-4.0192,-4.0207,-4.0229,-4.0238,-4.0262,-4.0274,-4.0292,-4.0306,-4.03,-4.0338,-4.0332,-4.0346,-4.0346,-4.0352,-4.0351,-4.0383,-4.036,-4.036,-4.036,-4.036,0,-4.0052,-4.0073,-4.0102,-4.0118,-4.0143,-4.016,-4.0184,-4.0198,-4.0219,-4.0238,-4.0248,-4.0266,-4.0284,-4.0304,-4.0315,-4.0342,-4.0347,-4.0354,-4.0357,-4.0353,-4.0353,-4.0361,-4.0359,-4.0361,-4.0361,-4.0361,-4.0361,0,-4.0058,-4.0078,-4.0108,-4.0139,-4.0148,-4.0164,-4.019,-4.0207,-4.0222,-4.0246,-4.0253,-4.0275,-4.0301,-4.0317,-4.0348,-4.0356,-4.0384,-4.0386,-4.0377,-4.0379,-4.0392,-4.039,-4.0429,-4.0436,-4.0409,-4.0409,-4.0409,0,-4.0068,-4.0085,-4.0119,-4.0134,-4.0149,-4.0173,-4.0189,-4.0208,-4.0224,-4.0253,-4.0267,-4.0293,-4.0315,-4.0354,-4.0373,-4.0398,-4.04,-4.0413,-4.0404,-4.0401,-4.0401,-4.04,-4.0402,-4.0413,-4.0414,-4.0414,-4.0414,0,-4.0084,-4.0094,-4.0118,-4.0147,-4.0166,-4.0189,-4.0211,-4.0223,-4.0246,-4.0264,-4.0291,-4.0308,-4.0342,-4.0368,-4.0396,-4.041,-4.0416,-4.0417,-4.0422,-4.0418,-4.0412,-4.0416,-4.0381,-4.0416,-4.0415,-4.0415,-4.0415,-4.0415,-4.0093,-4.011,-4.0137,-4.0164,-4.0184,-4.0206,-4.0224,-4.0243,-4.0267,-4.0297,-4.0307,-4.0335,-4.036,-4.0398,-4.0413,-4.0436,-4.0434,-4.044,-4.0442,-4.0443,-4.0444,-4.041,-4.044,-4.044,-4.044,-4.044,-4.044,0,-4.011,-4.0129,-4.0154,-4.0187,-4.0209,-4.0216,-4.0243,-4.026,-4.0286,-4.0309,-4.0332,-4.0365,-4.0391,-4.0414,-4.0442,-4.0455,-4.0459,-4.0462,-4.0461,-4.0464,-4.0443,-4.0437,-4.0459,-4.0459,-4.0459,-4.0459,-4.0459,-4.0459,-4.0121,-4.0151,-4.0165,-4.0205,-4.0225,-4.0254,-4.0269,-4.029,-4.0309,-4.0346,-4.0369,-4.0385,-4.0408,-4.0439,-4.0464,-4.047,-4.0479,-4.0482,-4.0488,-4.0467,-4.0465,-4.0463,-4.0457,-4.0484,-4.0484,-4.0508,-4.0508,-4.0508]}]]